Location: Jaite
(41.2884°N, 81.5737°W)
Time: 22:28:52
(UTC+00:00)

Cosmos 1908 - Pass Details

Date: 18 January 2020
Orbit: 511 x 532 km, 82.5° (Epoch: 18 February)

Event Time Altitude Azimuth Distance (km) Brightness Sun altitude
Rises 11:42:49 0° 184° (S) 2,659 7.0 -12.3°
Reaches altitude 10° 11:44:57 10° 183° (S) 1,775 6.1 -11.9°
Maximum altitude 11:48:51 80° 96° (E) 545 3.4 -11.2°
Drops below altitude 10° 11:52:47 10° 10° (N) 1,790 5.9 -10.5°
Sets 11:54:56 0° 9° (N) 2,683 6.7 -10.1°
